Tracking 19149 objects as of 22-Apr-2018
HD Live streaming from Space Station
objects crossing your sky now

FENGYUN 1C DEB

Track FENGYUN 1C DEB now!
10-day predictions


NORAD ID: 37003
Int'l Code: 1999-025ECK
Perigee: 855.5 km
Apogee: 1,001.4 km
Inclination: 99.1 °
Period: 103.4 minutes
Semi major axis: 7299 km
RCS: 0.0127 m2 (small)
Launch date: May 10, 1999
Source: People's Republic of China (PRC)
Launch site: Taiyaun Space Center, China (TSC)

Note: This is SATELLITE DEBRIS
aabbcc
Your satellite tracking list
Your tracking list is empty




NASA's NSSDC Master Catalog

Two Line Element Set (TLE):
1 37003U 99025ECK 18111.38509438 +.00000330 +00000-0 +28104-3 0  9994
2 37003 099.1377 175.3966 0099934 233.8609 186.1550 13.92087175217710
Source of the keplerian elements: AFSPC